Location: Milevsko
(49.4500°N, 14.3670°E)
Time: 09:30:01
(UTC+02:00)

ISS - Pass Details

Date: 21 July 2018
Orbit: 402 x 408 km, 51.6° (Epoch: 17 July)

Event Time Altitude Azimuth Distance (km) Brightness Sun altitude
Rises 22:53:13 0° 245° (WSW) 2,315 0.1 -14.0°
Reaches altitude 10° 22:55:18 10° 243° (WSW) 1,459 -0.9 -14.2°
Maximum altitude 22:58:33 75° 158° (SSE) 423 -4.0 -14.4°
Drops below altitude 10° 23:01:50 10° 73° (ENE) 1,467 -1.1 -14.7°
Sets 23:03:56 0° 72° (ENE) 2,330 -0.1 -14.9°
